When you browse on this site, cookies collect data to enhance your experience and personalize the content and advertising you see.
Visit our Privacy Policy to learn more. By continuing to use the site, you agree to this use of cookies and data.
  • In Österreich
  • Länderverzeichnis
  • Für 7 Tage
  • Wassertemperatur
  • Wetterkarte
  • News
  • Widgets
  • user-avatar
    Anmelden

    Stündliche Wetter Vaniyambadi

    Heute, 30 Mai, Samstag

    Zeit Temperatur Niederschläge Wind Luftdruck Luftfeuchtigkeit
    00:00 +30°C° 0 mm 2 m/S 726 mmHg 65%
    01:00 +29°C° 0 mm 2 m/S 725 mmHg 69%
    02:00 +29°C° 0 mm 2 m/S 724 mmHg 73%
    03:00 +28°C° 0 mm 2 m/S 725 mmHg 75%
    04:00 +28°C° 0 mm 2 m/S 725 mmHg 77%
    05:00 +28°C° 0 mm 1 m/S 725 mmHg 78%
    06:00 +29°C° 0 mm 2 m/S 726 mmHg 72%
    07:00 +30°C° 0 mm 2 m/S 727 mmHg 65%
    08:00 +32°C° 0 mm 2 m/S 727 mmHg 58%
    09:00 +35°C° 0 mm 2 m/S 727 mmHg 51%
    10:00 +37°C° 0 mm 1 m/S 727 mmHg 43%
    11:00 +40°C° 0 mm 1 m/S 727 mmHg 35%
    12:00 +40°C° 0.1 mm 1 m/S 726 mmHg 35%
    13:00 +40°C° 0.1 mm 2 m/S 725 mmHg 34%
    14:00 +40°C° 0.1 mm 2 m/S 725 mmHg 34%
    15:00 +38°C° 0.3 mm 2 m/S 724 mmHg 42%
    16:00 +35°C° 0.3 mm 3 m/S 724 mmHg 50%
    17:00 +33°C° 0.3 mm 3 m/S 724 mmHg 58%
    18:00 +31°C° 1.5 mm 3 m/S 724 mmHg 65%
    19:00 +30°C° 1.5 mm 3 m/S 725 mmHg 72%
    20:00 +28°C° 1.5 mm 3 m/S 726 mmHg 79%
    21:00 +28°C° 0.1 mm 2 m/S 726 mmHg 78%
    22:00 +28°C° 0.1 mm 2 m/S 727 mmHg 77%
    23:00 +28°C° 0.1 mm 1 m/S 727 mmHg 76%

    Morgen, 31 Mai, Sonntag

    Zeit Temperatur Niederschläge Wind Luftdruck Luftfeuchtigkeit
    00:00 +28°C° 0 mm 1 m/S 727 mmHg 76%
    01:00 +28°C° 0 mm 1 m/S 726 mmHg 77%
    02:00 +28°C° 0 mm 1 m/S 726 mmHg 78%
    03:00 +28°C° 0 mm 1 m/S 726 mmHg 78%
    04:00 +28°C° 0 mm 1 m/S 726 mmHg 78%
    05:00 +27°C° 0 mm 1 m/S 726 mmHg 79%
    06:00 +29°C° 0 mm 1 m/S 727 mmHg 71%
    07:00 +30°C° 0 mm 1 m/S 727 mmHg 64%
    08:00 +32°C° 0 mm 2 m/S 728 mmHg 57%
    09:00 +35°C° 0 mm 2 m/S 728 mmHg 50%
    10:00 +36°C° 0 mm 1 m/S 728 mmHg 44%
    11:00 +39°C° 0 mm 1 m/S 728 mmHg 38%
    12:00 +39°C° 0 mm 2 m/S 727 mmHg 36%
    13:00 +40°C° 0 mm 2 m/S 726 mmHg 33%
    14:00 +41°C° 0 mm 2 m/S 725 mmHg 31%
    15:00 +40°C° 0 mm 3 m/S 725 mmHg 32%
    16:00 +40°C° 0 mm 3 m/S 725 mmHg 33%
    17:00 +39°C° 0 mm 3 m/S 724 mmHg 34%
    18:00 +38°C° 0.1 mm 3 m/S 725 mmHg 39%
    19:00 +36°C° 0.1 mm 3 m/S 725 mmHg 44%
    20:00 +35°C° 0.1 mm 3 m/S 726 mmHg 49%
    21:00 +34°C° 0.4 mm 3 m/S 726 mmHg 53%
    22:00 +32°C° 0.4 mm 2 m/S 726 mmHg 58%
    23:00 +31°C° 0.4 mm 1 m/S 727 mmHg 63%

    übermorgen, 1 Juni, Montag

    Zeit Temperatur Niederschläge Wind Luftdruck Luftfeuchtigkeit
    00:00 +31°C° 0.2 mm 1 m/S 726 mmHg 64%
    01:00 +31°C° 0.2 mm 1 m/S 726 mmHg 65%
    02:00 +30°C° 0.2 mm 1 m/S 726 mmHg 67%
    03:00 +30°C° 0 mm 1 m/S 726 mmHg 69%
    04:00 +29°C° 0 mm 1 m/S 726 mmHg 71%
    05:00 +29°C° 0 mm 2 m/S 726 mmHg 73%
    06:00 +30°C° 0 mm 2 m/S 727 mmHg 68%
    07:00 +31°C° 0 mm 2 m/S 727 mmHg 63%
    08:00 +34°C° 0 mm 3 m/S 728 mmHg 59%
    09:00 +35°C° 0 mm 2 m/S 728 mmHg 53%
    10:00 +37°C° 0 mm 2 m/S 728 mmHg 47%
    11:00 +38°C° 0 mm 2 m/S 728 mmHg 42%
    12:00 +38°C° 0 mm 2 m/S 727 mmHg 40%
    13:00 +39°C° 0 mm 2 m/S 726 mmHg 39%
    14:00 +39°C° 0 mm 2 m/S 725 mmHg 38%
    15:00 +37°C° 1.5 mm 2 m/S 725 mmHg 48%
    16:00 +34°C° 1.5 mm 3 m/S 724 mmHg 59%
    17:00 +31°C° 1.5 mm 3 m/S 724 mmHg 70%
    18:00 +30°C° 3.7 mm 3 m/S 724 mmHg 73%
    19:00 +29°C° 3.7 mm 2 m/S 725 mmHg 76%
    20:00 +28°C° 3.7 mm 1 m/S 726 mmHg 78%
    21:00 +28°C° 0.2 mm 2 m/S 726 mmHg 77%
    22:00 +29°C° 0.2 mm 2 m/S 727 mmHg 76%
    23:00 +29°C° 0.2 mm 3 m/S 727 mmHg 75%

    2 Juni, Dienstag

    Zeit Temperatur Niederschläge Wind Luftdruck Luftfeuchtigkeit
    00:00 +29°C° 0 mm 3 m/S 727 mmHg 76%
    01:00 +29°C° 0 mm 3 m/S 726 mmHg 76%
    02:00 +28°C° 0 mm 3 m/S 725 mmHg 77%
    03:00 +28°C° 0 mm 2 m/S 726 mmHg 78%
    04:00 +28°C° 0 mm 2 m/S 726 mmHg 79%
    05:00 +27°C° 0 mm 1 m/S 726 mmHg 80%
    06:00 +29°C° 0 mm 1 m/S 726 mmHg 75%
    07:00 +30°C° 0 mm 1 m/S 727 mmHg 69%
    08:00 +31°C° 0 mm 2 m/S 728 mmHg 64%
    09:00 +32°C° 0 mm 2 m/S 728 mmHg 57%
    10:00 +35°C° 0 mm 2 m/S 727 mmHg 51%
    11:00 +36°C° 0 mm 3 m/S 727 mmHg 45%
    12:00 +37°C° 0 mm 3 m/S 727 mmHg 43%
    13:00 +38°C° 0 mm 3 m/S 726 mmHg 41%
    14:00 +38°C° 0 mm 4 m/S 725 mmHg 39%
    15:00 +38°C° 0 mm 3 m/S 725 mmHg 41%
    16:00 +37°C° 0 mm 3 m/S 725 mmHg 42%
    17:00 +37°C° 0 mm 3 m/S 725 mmHg 44%
    18:00 +35°C° 0.3 mm 3 m/S 725 mmHg 49%
    19:00 +34°C° 0.3 mm 3 m/S 726 mmHg 55%
    20:00 +33°C° 0.3 mm 3 m/S 726 mmHg 60%
    21:00 +32°C° 0.7 mm 4 m/S 726 mmHg 64%
    22:00 +30°C° 0.7 mm 4 m/S 727 mmHg 68%
    23:00 +29°C° 0.7 mm 4 m/S 727 mmHg 71%

    3 Juni, Mittwoch

    Zeit Temperatur Niederschläge Wind Luftdruck Luftfeuchtigkeit
    00:00 +29°C° 0 mm 3 m/S 726 mmHg 73%
    01:00 +28°C° 0 mm 2 m/S 726 mmHg 74%
    02:00 +28°C° 0 mm 2 m/S 725 mmHg 75%
    03:00 +28°C° 0 mm 2 m/S 725 mmHg 76%
    04:00 +28°C° 0 mm 2 m/S 725 mmHg 76%
    05:00 +27°C° 0 mm 2 m/S 725 mmHg 77%
    06:00 +28°C° 0 mm 2 m/S 726 mmHg 73%
    07:00 +29°C° 0 mm 2 m/S 727 mmHg 69%
    08:00 +30°C° 0 mm 3 m/S 727 mmHg 66%
    09:00 +33°C° 0 mm 3 m/S 727 mmHg 59%
    10:00 +35°C° 0 mm 3 m/S 727 mmHg 52%
    11:00 +36°C° 0 mm 3 m/S 727 mmHg 45%
    12:00 +37°C° 0 mm 3 m/S 726 mmHg 41%
    13:00 +38°C° 0 mm 3 m/S 725 mmHg 38%
    14:00 +40°C° 0 mm 4 m/S 725 mmHg 35%
    15:00 +39°C° 0 mm 3 m/S 724 mmHg 36%
    16:00 +38°C° 0 mm 3 m/S 724 mmHg 37%
    17:00 +38°C° 0 mm 3 m/S 724 mmHg 38%
    18:00 +36°C° 0.2 mm 3 m/S 724 mmHg 44%
    19:00 +34°C° 0.2 mm 3 m/S 725 mmHg 49%
    20:00 +33°C° 0.2 mm 4 m/S 725 mmHg 55%
    21:00 +31°C° 0.2 mm 3 m/S 726 mmHg 58%
    22:00 +30°C° 0.2 mm 3 m/S 726 mmHg 62%
    23:00 +30°C° 0.2 mm 3 m/S 726 mmHg 65%

    4 Juni, Donnerstag

    Zeit Temperatur Niederschläge Wind Luftdruck Luftfeuchtigkeit
    00:00 +29°C° 0 mm 3 m/S 726 mmHg 67%
    01:00 +29°C° 0 mm 3 m/S 726 mmHg 69%
    02:00 +28°C° 0 mm 2 m/S 725 mmHg 71%
    03:00 +28°C° 0 mm 2 m/S 725 mmHg 72%
    04:00 +28°C° 0 mm 2 m/S 725 mmHg 73%
    05:00 +27°C° 0 mm 2 m/S 726 mmHg 74%
    06:00 +28°C° 0 mm 3 m/S 726 mmHg 68%
    07:00 +30°C° 0 mm 3 m/S 727 mmHg 63%
    08:00 +31°C° 0 mm 3 m/S 727 mmHg 58%
    09:00 +34°C° 0 mm 4 m/S 727 mmHg 52%
    10:00 +35°C° 0 mm 4 m/S 727 mmHg 47%
    11:00 +37°C° 0 mm 4 m/S 727 mmHg 41%
    12:00 +38°C° 0 mm 3 m/S 726 mmHg 38%
    13:00 +39°C° 0 mm 3 m/S 725 mmHg 35%
    14:00 +40°C° 0 mm 2 m/S 724 mmHg 31%
    15:00 +40°C° 0 mm 2 m/S 724 mmHg 33%
    16:00 +39°C° 0 mm 2 m/S 724 mmHg 34%
    17:00 +39°C° 0 mm 2 m/S 724 mmHg 35%
    18:00 +37°C° 0.1 mm 3 m/S 725 mmHg 41%
    19:00 +36°C° 0.1 mm 3 m/S 725 mmHg 46%
    20:00 +34°C° 0.1 mm 4 m/S 726 mmHg 52%
    21:00 +33°C° 0.3 mm 4 m/S 726 mmHg 57%
    22:00 +31°C° 0.3 mm 3 m/S 726 mmHg 61%
    23:00 +30°C° 0.3 mm 3 m/S 726 mmHg 66%
    Mehr zeigen